THORAD AGENA D DEB, 5758

Orbit data source: Space-Track

THORAD AGENA D DEB, 5758 is space debris in LEO originally from a launch on Tue, 30 Sep 1969 UTC launched from the Air Force Western Test Range (AFWTR). Debris objects in space refer to the collection of defunct objects orbiting the Earth. Examples of debris include non-operational satellites, rocket bodies, and fragments generated from explosions, collisions, or faulty payload assembly.

Loading next visibility...
Identifier
5758, 1969-082JS
Orbit
LEO
Country
Flag of USUS
Related business
Manufacturer
Unknown
Mission
Spacecraft
Bus & Motor
Unknown
Mass
Unknown
Launch date (UTC)
1969-09-30 (57 years ago)
Launch vehicle
Unknown
Launch site
Air Force Western Test Range (AFWTR)
Object type
Payload
Rocket body
Debris
Shape & HBR
Unknown shape, 0.1 m
Radar Cross Section
Medium (>0.1 m² and <1 m²)

Expand to show TLE details & history
Last TLE update: 1 day ago

TLE from 1 day ago
0 THORAD AGENA D DEB
1 05758U 69082JS  26173.32084729  .00000014  00000-0  62716-4 0  9995
2 05758  69.8060 129.4495 0046192 335.1703 176.0036 13.80986593864186
Epoch: 2026-06-22T07:42Z
TLE epoch observation values (Epoch: 2026-06-22T07:42:01.205Z)
Latitude
26.91882°
Longitude
-87.27087°
Altitude
996.871 km
Speed
7.339 km/s
True Right ascension
19h 54m 58s
True Declination
26° 47' 05"
Sunlit
Object was in full shadow at epoch
Visualization orbit readout
Latitude
Unknown
Longitude
Unknown
Altitude
Unknown
Speed
Unknown
Apparent Right ascension
Unknown
Apparent Declination
Unknown
Sunlit
N/A
Visualization observer readout
Local Sidereal Time
23:53:19
Azimuth
Unknown
Elevation
Unknown
Doppler factor
Unknown
Orbital elements
Apogee altitude
992.356 km
Perigee altitude
924.577 km
Semi-major axis
7,336.603 km
Eccentricity
0.00462
Inclination
69.806°
RAAN
129.4495°
Arg. of periapsis
335.1703°
True anomaly
176.04028°
Mean anomaly
176.0036°
Eccentric anomaly
176.02196°
Mean motion
3.45383 °/min
Orbital period
104.23 mins
BSTAR
0.000062716

Documentation

Showing up to 5 results
|